Time,TemperatureF,DewpointF,PressureIn,WindDirection,WindDirectionDegrees,WindSpeedMPH,WindSpeedGustMPH,Humidity,HourlyPrecipIn,Conditions,Clouds,dailyrainin,SoftwareType,DateUTC
2013-02-21 00:01:00,43.0,41.0,30.04,ENE,78,0.0,1.0,94,0.00,,,-99.99,,2013-02-21 07:01:00,
2013-02-21 00:11:00,42.0,40.0,30.04,NW,319,0.0,1.0,94,0.00,,,-99.99,,2013-02-21 07:11:00,
2013-02-21 00:21:00,42.0,40.0,30.04,NW,319,0.0,1.0,94,0.00,,,-99.99,,2013-02-21 07:21:00,
2013-02-21 00:31:00,42.0,41.0,30.05,ENE,69,0.0,2.0,95,0.00,,,-99.99,,2013-02-21 07:31:00,
2013-02-21 00:41:00,42.0,41.0,30.05,ENE,59,0.0,2.0,95,0.00,,,-99.99,,2013-02-21 07:41:00,
2013-02-21 00:52:00,42.0,41.0,30.05,ENE,59,0.0,2.0,95,0.00,,,-99.99,,2013-02-21 07:52:00,
2013-02-21 01:01:00,42.0,41.0,30.05,ENE,59,0.0,2.0,95,0.00,,,-99.99,,2013-02-21 08:01:00,
2013-02-21 01:11:00,42.0,41.0,30.05,ENE,59,0.0,2.0,95,0.00,,,-99.99,,2013-02-21 08:11:00,
2013-02-21 01:21:00,42.0,41.0,30.05,ENE,59,0.0,2.0,95,0.00,,,-99.99,,2013-02-21 08:21:00,
2013-02-21 01:31:00,42.0,41.0,30.05,ENE,59,0.0,2.0,95,0.00,,,-99.99,,2013-02-21 08:31:00,
2013-02-21 09:42:00,43.0,39.0,30.09,SSE,157,2.0,5.0,85,-99.99,,,-99.99,,2013-02-21 16:42:00,
2013-02-21 09:52:00,43.0,39.0,30.09,SSE,157,2.0,5.0,85,-99.99,,,-99.99,,2013-02-21 16:52:00,
2013-02-21 10:01:00,44.0,39.0,30.09,SSE,163,0.0,5.0,83,-99.99,,,-99.99,,2013-02-21 17:01:00,
2013-02-21 10:11:00,44.0,39.0,30.09,SSE,163,0.0,5.0,83,-99.99,,,-99.99,,2013-02-21 17:11:00,
2013-02-21 10:21:00,45.0,40.0,30.09,SSE,163,1.0,5.0,82,-99.99,,,-99.99,,2013-02-21 17:21:00,
2013-02-21 10:32:00,47.0,41.0,30.08,South,175,2.0,5.0,78,-99.99,,,-99.99,,2013-02-21 17:32:00,
2013-02-21 10:41:00,47.0,41.0,30.08,South,175,2.0,5.0,78,-99.99,,,-99.99,,2013-02-21 17:41:00,
2013-02-21 10:52:00,47.0,40.0,30.07,South,175,0.0,1.0,76,-99.99,,,-99.99,,2013-02-21 17:52:00,
2013-02-21 11:01:00,48.0,40.0,30.07,WNW,297,1.0,3.0,74,0.00,,,-99.99,,2013-02-21 18:01:00,
2013-02-21 11:11:00,48.0,40.0,30.07,WNW,297,1.0,3.0,74,0.00,,,-99.99,,2013-02-21 18:11:00,
2013-02-21 11:21:00,49.0,41.0,30.07,West,281,0.0,2.0,74,0.00,,,-99.99,,2013-02-21 18:21:00,
2013-02-21 11:31:00,51.0,41.0,30.06,West,281,1.0,3.0,69,0.00,,,-99.99,,2013-02-21 18:31:00,
2013-02-21 11:42:00,51.0,41.0,30.06,West,281,1.0,3.0,69,0.00,,,-99.99,,2013-02-21 18:42:00,
2013-02-21 11:52:00,53.0,41.0,30.06,West,278,1.0,4.0,64,0.00,,,-99.99,,2013-02-21 18:52:00,
2013-02-21 12:01:00,55.0,39.0,30.06,NNW,348,5.0,13.0,54,0.00,,,-99.99,,2013-02-21 19:01:00,
2013-02-21 12:11:00,55.0,39.0,30.06,NNW,348,5.0,13.0,54,0.00,,,-99.99,,2013-02-21 19:11:00,
2013-02-21 12:21:00,56.0,39.0,30.06,NNW,336,5.0,11.0,52,0.00,,,-99.99,,2013-02-21 19:21:00,
2013-02-21 12:31:00,57.0,38.0,30.05,WNW,292,6.0,11.0,49,0.00,,,-99.99,,2013-02-21 19:31:00,
2013-02-21 12:41:00,57.0,38.0,30.05,WNW,292,6.0,11.0,49,0.00,,,-99.99,,2013-02-21 19:41:00,
2013-02-21 12:51:00,57.0,38.0,30.04,NNW,334,5.0,13.0,49,0.00,,,-99.99,,2013-02-21 19:51:00,
2013-02-21 13:01:00,57.0,37.0,30.04,WNW,290,4.0,10.0,47,0.00,,,-99.99,,2013-02-21 20:01:00,
2013-02-21 13:11:00,58.0,38.0,30.03,NNW,331,4.0,10.0,47,0.00,,,-99.99,,2013-02-21 20:11:00,
2013-02-21 13:21:00,58.0,38.0,30.03,NNW,331,4.0,10.0,47,0.00,,,-99.99,,2013-02-21 20:21:00,
2013-02-21 13:31:00,59.0,38.0,30.02,NW,320,8.0,12.0,46,0.00,,,-99.99,,2013-02-21 20:31:00,
2013-02-21 13:41:00,59.0,38.0,30.02,NW,320,8.0,12.0,46,0.00,,,-99.99,,2013-02-21 20:41:00,
2013-02-21 13:52:00,59.0,38.0,30.01,West,263,4.0,10.0,46,0.00,,,-99.99,,2013-02-21 20:52:00,
2013-02-21 14:02:00,60.0,39.0,30.01,NNW,333,4.0,10.0,46,0.00,,,-99.99,,2013-02-21 21:02:00,
2013-02-21 14:11:00,61.0,40.0,30.00,NNW,347,1.0,11.0,45,0.00,,,-99.99,,2013-02-21 21:11:00,
2013-02-21 14:21:00,61.0,40.0,30.00,NNW,347,1.0,11.0,45,0.00,,,-99.99,,2013-02-21 21:21:00,
2013-02-21 14:31:00,61.0,40.0,30.00,NNW,347,1.0,11.0,45,0.00,,,-99.99,,2013-02-21 21:31:00,
2013-02-21 14:41:00,61.0,40.0,30.00,NNW,347,1.0,11.0,45,0.00,,,-99.99,,2013-02-21 21:41:00,
2013-02-21 14:52:00,61.0,40.0,30.00,NNW,347,1.0,11.0,45,0.00,,,-99.99,,2013-02-21 21:52:00,
2013-02-21 15:01:00,61.0,40.0,30.00,NNW,347,1.0,11.0,45,0.00,,,-99.99,,2013-02-21 22:01:00,